CSH9270 ZJHK-ZSSS

Flight info

Callsign CSH9270
Flight time N/A
Altitude 35100
Route SAMAS J200 P469 H81 GYA A599 POU G471 XEBUL H22 UPNUG W76 AREPI B221 SHZ G204 JTN
Aircraft B738/M-SDFGHIRWXY/LB1

Departure

Time 2026-05-08 08:48
Airport Haikou Meilan International Airport (ZJHK)

Arrival

Time N/A
Airport Shanghai Hongqiao International Airport (ZSSS)
Time Latitude Longitude Altitude Speed Heading
2026-05-08 08:21 19.94995 110.46104 57 ft 0 kts 204°
2026-05-08 08:39 19.94999 110.46106 57 ft 4 kts 205°
2026-05-08 08:39 19.95015 110.46115 51 ft 4 kts 215°
2026-05-08 08:39 19.95041 110.46141 49 ft 4 kts 235°
2026-05-08 08:39 19.95047 110.46150 49 ft 1 kts 237°
2026-05-08 08:40 19.95047 110.46151 49 ft 0 kts 237°
2026-05-08 08:43 19.95047 110.46149 49 ft 1 kts 250°
2026-05-08 08:43 19.95053 110.46124 54 ft 8 kts 288°
2026-05-08 08:43 19.95063 110.46041 56 ft 13 kts 270°
2026-05-08 08:43 19.95091 110.45954 54 ft 13 kts 320°
2026-05-08 08:44 19.95120 110.45869 56 ft 13 kts 271°
2026-05-08 08:44 19.95120 110.45776 55 ft 12 kts 270°
2026-05-08 08:44 19.95120 110.45685 55 ft 12 kts 270°
2026-05-08 08:44 19.95120 110.45592 55 ft 14 kts 270°
2026-05-08 08:45 19.95119 110.45480 54 ft 17 kts 269°
2026-05-08 08:45 19.95119 110.45343 54 ft 20 kts 270°
2026-05-08 08:45 19.95118 110.45188 53 ft 21 kts 269°
2026-05-08 08:45 19.95118 110.45037 52 ft 17 kts 274°
2026-05-08 08:46 19.95184 110.44975 51 ft 12 kts 332°
2026-05-08 08:46 19.95209 110.44905 51 ft 11 kts 255°
2026-05-08 08:46 19.95207 110.44836 51 ft 7 kts 294°
2026-05-08 08:46 19.95246 110.44817 50 ft 7 kts
2026-05-08 08:47 19.95293 110.44824 48 ft 7 kts 11°
2026-05-08 08:47 19.95341 110.44849 49 ft 8 kts 37°
2026-05-08 08:47 19.95371 110.44899 49 ft 8 kts 79°
2026-05-08 08:47 19.95374 110.45117 52 ft 71 kts 90°
2026-05-08 08:48 19.95381 110.45932 58 ft 150 kts 87°
2026-05-08 08:48 19.95428 110.47225 517 ft 188 kts 88°
2026-05-08 08:48 19.95506 110.48664 1444 ft 204 kts 79°
2026-05-08 08:48 19.96171 110.49925 2400 ft 204 kts 42°
2026-05-08 08:49 19.97399 110.50855 2733 ft 231 kts 32°
2026-05-08 08:49 19.98814 110.51776 3301 ft 245 kts 31°
2026-05-08 08:49 20.00266 110.52725 4263 ft 245 kts 32°
2026-05-08 08:49 20.01703 110.53689 5104 ft 250 kts 32°
2026-05-08 08:50 20.03174 110.54700 5983 ft 253 kts 33°
2026-05-08 08:50 20.04656 110.55736 6807 ft 257 kts 33°
2026-05-08 08:50 20.06163 110.56799 7627 ft 261 kts 33°
2026-05-08 08:50 20.07684 110.57876 8442 ft 264 kts 33°
2026-05-08 08:51 20.09239 110.58946 9255 ft 269 kts 26°
2026-05-08 08:51 20.11053 110.59422 9960 ft 277 kts 359°
2026-05-08 08:51 20.13026 110.59076 10245 ft 300 kts 346°
2026-05-08 08:51 20.15144 110.58510 10424 ft 326 kts 345°
2026-05-08 08:52 20.17424 110.57904 10669 ft 347 kts 346°
2026-05-08 08:52 20.19800 110.57285 11228 ft 354 kts 346°
2026-05-08 08:52 20.22211 110.56669 11937 ft 358 kts 346°
2026-05-08 08:52 20.24638 110.56055 12635 ft 361 kts 346°
2026-05-08 08:53 20.27100 110.55432 13304 ft 365 kts 346°
2026-05-08 08:53 20.29589 110.54803 13944 ft 369 kts 346°
2026-05-08 08:53 20.32104 110.54166 14528 ft 373 kts 345°
2026-05-08 08:53 20.34605 110.53533 15122 ft 376 kts 345°
2026-05-08 08:54 20.37158 110.52886 15714 ft 379 kts 345°
2026-05-08 08:54 20.39768 110.52224 16298 ft 382 kts 345°
2026-05-08 08:54 20.42333 110.51574 16856 ft 386 kts 345°
2026-05-08 08:54 20.44958 110.50907 17419 ft 390 kts 345°
2026-05-08 08:55 20.47612 110.50234 17976 ft 393 kts 345°
2026-05-08 08:55 20.50302 110.49605 18357 ft 400 kts 351°
2026-05-08 08:55 20.53112 110.49633 18702 ft 407 kts
2026-05-08 08:55 20.55935 110.49969 19139 ft 409 kts
2026-05-08 08:56 20.58771 110.50336 19575 ft 411 kts
2026-05-08 08:56 20.61631 110.50704 20017 ft 413 kts
2026-05-08 08:56 20.64500 110.51061 20432 ft 416 kts
2026-05-08 08:56 20.67388 110.51408 20838 ft 419 kts
2026-05-08 08:57 20.70293 110.51748 21236 ft 421 kts
2026-05-08 08:57 20.73215 110.52084 21644 ft 424 kts
2026-05-08 08:57 20.76120 110.52415 22026 ft 426 kts
2026-05-08 08:57 20.79075 110.52751 22407 ft 429 kts
2026-05-08 08:58 20.82052 110.53089 22790 ft 431 kts
2026-05-08 08:58 20.85043 110.53430 23158 ft 434 kts
2026-05-08 08:58 20.88056 110.53773 23524 ft 436 kts
2026-05-08 08:58 20.91085 110.54119 23814 ft 439 kts
2026-05-08 08:59 20.94126 110.54466 24125 ft 440 kts
2026-05-08 08:59 20.97177 110.54815 24446 ft 441 kts
2026-05-08 08:59 21.00239 110.55165 24755 ft 443 kts
2026-05-08 08:59 21.03312 110.55516 25046 ft 445 kts